QPF
0.00 0.00 0.00 0.00 0.01 0.01 0.01 0.01 0.01 0.01 0.01 0.01 0.01 0.01 0.02 0.02 0.01 0.01 0.01 0.01 0.01 0.01 0.02 0.04 0.02 0.01 0.01 0.01 0.01 0.00 0.00 0.00 0.00 0.01 0.01 0.01 0.01 0.01 0.01 0.01 0.01 0.01 0.01
0.00 0.00 0.00 0.00 0.01 0.01 0.01 0.01 0.01 0.01 0.01 0.01 0.01 0.01 0.02 0.02 0.02 0.01 0.01 0.01 0.01 0.02 0.02 0.03 0.02 0.02 0.02 0.01 0.01 0.00 0.00 0.00 0.00 0.00 0.00 0.01 0.01 0.01 0.01 0.01 0.01 0.02 0.02
0.00 0.00 0.00 0.01 0.01 0.01 0.01 0.01 0.01 0.01 0.01 0.01 0.02 0.03 0.04 0.02 0.02 0.02 0.01 0.01 0.02 0.02 0.02 0.03 0.02 0.02 0.01 0.01 0.00 0.00 0.00 0.00 0.00 0.00 0.00 0.01 0.01 0.02 0.02 0.01 0.02 0.02 0.01
0.00 0.00 0.00 0.01 0.01 0.01 0.01 0.01 0.02 0.02 0.01 0.02 0.03 0.04 0.05 0.03 0.02 0.02 0.01 0.01 0.02 0.02 0.02 0.02 0.02 0.01 0.00 0.00 0.00 0.00 0.00 0.00 0.00 0.00 0.01 0.01 0.01 0.02 0.01 0.01 0.01 0.01 0.01
0.00 0.00 0.00 0.01 0.01 0.02 0.02 0.02 0.02 0.02 0.02 0.02 0.02 0.03 0.03 0.03 0.02 0.02 0.02 0.01 0.02 0.01 0.01 0.01 0.01 0.00 0.00 0.00 0.00 0.00 0.00 0.00 0.00 0.00 0.01 0.01 0.01 0.01 0.01 0.01 0.01 0.01 0.01
0.00 0.00 0.00 0.01 0.01 0.02 0.02 0.02 0.03 0.02 0.02 0.02 0.03 0.03 0.03 0.03 0.02 0.02 0.02 0.01 0.01 0.01 0.01 0.01 0.00 0.00 0.00 0.00 0.00 0.00 0.00 0.00 0.00 0.01 0.01 0.01 0.01 0.01 0.02 0.01 0.01 0.01 0.01
0.00 0.00 0.01 0.01 0.02 0.03 0.03 0.03 0.04 0.04 0.03 0.03 0.03 0.04 0.04 0.03 0.03 0.02 0.01 0.01 0.01 0.01 0.01 0.01 0.00 0.00 0.00 0.00 0.00 0.00 0.00 0.00 0.00 0.01 0.01 0.01 0.01 0.02 0.02 0.01 0.01 0.01 0.01
0.00 0.00 0.01 0.02 0.03 0.04 0.04 0.04 0.05 0.05 0.05 0.05 0.04 0.05 0.05 0.04 0.03 0.02 0.01 0.01 0.01 0.01 0.01 0.01 0.00 0.00 0.00 0.00 0.00 0.00 0.00 0.00 0.00 0.00 0.00 0.01 0.02 0.02 0.02 0.01 0.01 0.01 0.01
0.00 0.01 0.02 0.03 0.04 0.05 0.06 0.06 0.06 0.06 0.06 0.06 0.06 0.06 0.05 0.04 0.04 0.02 0.01 0.01 0.01 0.01 0.01 0.01 0.01 0.00 0.00 0.00 0.00 0.00 0.00 0.00 0.00 0.00 0.00 0.01 0.02 0.02 0.01 0.01 0.01 0.01 0.01
0.01 0.02 0.03 0.04 0.06 0.06 0.07 0.08 0.08 0.08 0.08 0.07 0.07 0.07 0.05 0.05 0.05 0.03 0.01 0.01 0.01 0.01 0.01 0.01 0.01 0.00 0.00 0.00 0.00 0.00 0.00 0.00 0.00 0.00 0.00 0.01 0.02 0.01 0.01 0.01 0.01 0.01 0.01
0.02 0.03 0.05 0.08 0.09 0.09 0.10 0.10 0.11 0.11 0.12 0.11 0.10 0.08 0.06 0.06 0.05 0.03 0.01 0.01 0.01 0.01 0.01 0.01 0.01 0.00 0.00 0.00 0.00 0.00 0.00 0.00 0.00 0.00 0.00 0.01 0.01 0.01 0.01 0.00 0.00 0.00 0.00
0.02 0.04 0.07 0.10 0.13 0.14 0.14 0.14 0.17 0.17 0.15 0.13 0.09 0.06 0.07 0.06 0.04 0.03 0.02 0.01 0.01 0.01 0.01 0.01 0.00 0.00 0.00 0.00 0.00 0.00 0.00 0.00 0.00 0.00 0.00 0.01 0.01 0.01 0.01 0.00 0.00 0.00 0.00
0.02 0.03 0.07 0.12 0.16 0.18 0.18 0.17 0.18 0.18 0.15 0.13 0.09 0.06 0.06 0.06 0.04 0.03 0.02 0.02 0.01 0.01 0.01 0.01 0.00 0.00 0.00 0.00 0.00 0.00 0.00 0.00 0.00 0.00 0.00 0.01 0.01 0.01 0.01 0.00 0.00 0.00 0.00
0.03 0.05 0.09 0.15 0.19 0.20 0.20 0.19 0.18 0.16 0.14 0.11 0.09 0.07 0.06 0.05 0.03 0.02 0.01 0.01 0.01 0.01 0.01 0.00 0.00 0.00 0.00 0.00 0.00 0.00 0.00 0.00 0.00 0.00 0.00 0.00 0.01 0.01 0.01 0.00 0.00 0.00 0.00
0.04 0.07 0.12 0.17 0.21 0.22 0.22 0.21 0.21 0.17 0.13 0.10 0.09 0.09 0.06 0.03 0.02 0.01 0.01 0.01 0.00 0.00 0.00 0.00 0.00 0.00 0.00 0.00 0.00 0.00 0.00 0.00 0.00 0.00 0.00 0.00 0.00 0.01 0.01 0.00 0.00 0.00 0.00
0.04 0.07 0.14 0.18 0.21 0.24 0.24 0.22 0.21 0.19 0.16 0.15 0.11 0.08 0.07 0.03 0.02 0.01 0.01 0.00 0.00 0.00 0.00 0.00 0.00 0.00 0.00 0.00 0.00 0.00 0.00 0.00 0.00 0.00 0.00 0.00 0.00 0.00 0.00 0.00 0.00 0.00 0.00
0.04 0.08 0.12 0.17 0.22 0.26 0.27 0.26 0.24 0.22 0.19 0.16 0.14 0.09 0.08 0.05 0.02 0.01 0.01 0.00 0.00 0.00 0.00 0.00 0.00 0.00 0.00 0.00 0.00 0.00 0.00 0.00 0.00 0.00 0.00 0.00 0.00 0.00 0.00 0.00 0.00 0.00 0.00
0.03 0.07 0.11 0.16 0.22 0.26 0.30 0.30 0.26 0.25 0.24 0.20 0.15 0.13 0.09 0.05 0.03 0.02 0.01 0.00 0.00 0.00 0.00 0.00 0.00 0.00 0.00 0.00 0.00 0.00 0.00 0.00 0.00 0.00 0.00 0.00 0.00 0.00 0.00 0.00 0.00 0.00 0.00
0.04 0.07 0.11 0.14 0.21 0.27 0.34 0.33 0.29 0.25 0.27 0.24 0.18 0.14 0.12 0.07 0.04 0.02 0.01 0.00 0.00 0.00 0.00 0.00 0.00 0.00 0.00 0.00 0.00 0.00 0.00 0.00 0.00 0.00 0.00 0.00 0.00 0.00 0.00 0.00 0.00 0.00 0.00
0.04 0.07 0.11 0.15 0.22 0.28 0.37 0.41 0.36 0.30 0.28 0.26 0.21 0.15 0.11 0.08 0.05 0.03 0.01 0.01 0.00 0.00 0.00 0.00 0.00 0.00 0.00 0.00 0.00 0.00 0.00 0.00 0.00 0.00 0.00 0.00 0.00 0.00 0.00 0.00 0.00 0.00 0.00
0.04 0.08 0.13 0.16 0.21 0.28 0.34 0.45 0.38 0.32 0.28 0.26 0.23 0.19 0.15 0.10 0.06 0.03 0.02 0.01 0.00 0.00 0.00 0.00 0.00 0.00 0.00 0.00 0.00 0.00 0.00 0.00 0.00 0.00 0.00 0.00 0.00 0.00 0.00 0.00 0.00 0.00 0.00
0.06 0.08 0.13 0.18 0.21 0.25 0.29 0.36 0.41 0.31 0.29 0.26 0.23 0.21 0.17 0.13 0.09 0.04 0.02 0.01 0.00 0.00 0.00 0.00 0.00 0.00 0.00 0.00 0.00 0.00 0.00 0.00 0.00 0.00 0.00 0.00 0.00 0.00 0.00 0.00 0.00 0.00 0.00
0.07 0.08 0.12 0.18 0.20 0.23 0.28 0.32 0.43 0.42 0.35 0.30 0.26 0.22 0.18 0.14 0.11 0.07 0.03 0.01 0.01 0.00 0.00 0.00 0.00 0.00 0.00 0.00 0.00 0.00 0.00 0.00 0.00 0.00 0.00 0.00 0.00 0.00 0.00 0.00 0.00 0.00 0.00
0.06 0.07 0.12 0.18 0.21 0.22 0.27 0.29 0.35 0.42 0.35 0.27 0.21 0.21 0.20 0.15 0.13 0.10 0.06 0.03 0.01 0.00 0.00 0.00 0.00 0.00 0.00 0.00 0.00 0.00 0.00 0.00 0.00 0.00 0.00 0.00 0.00 0.00 0.00 0.00 0.00 0.00 0.00
0.06 0.08 0.13 0.20 0.23 0.23 0.24 0.27 0.30 0.36 0.37 0.30 0.24 0.21 0.21 0.18 0.15 0.11 0.07 0.05 0.02 0.01 0.00 0.00 0.00 0.00 0.00 0.00 0.00 0.00 0.00 0.00 0.00 0.00 0.00 0.00 0.00 0.00 0.00 0.00 0.00 0.00 0.00
0.08 0.09 0.16 0.23 0.24 0.23 0.22 0.24 0.25 0.28 0.39 0.38 0.31 0.26 0.21 0.19 0.17 0.13 0.07 0.05 0.03 0.01 0.00 0.00 0.00 0.00 0.00 0.00 0.00 0.00 0.00 0.00 0.00 0.00 0.00 0.00 0.00 0.00 0.00 0.00 0.00 0.00 0.00
MSLP
1004.59 1004.33 1004.35 1004.63 1005.09 1005.65 1006.19 1006.66 1007.02 1007.27 1007.46 1007.65 1007.89 1008.22 1008.65 1009.15 1009.68 1010.20 1010.65 1011.04 1011.35 1011.63 1011.89 1012.16 1012.45 1012.77 1013.08 1013.37 1013.61 1013.78 1013.91 1014.00 1014.08 1014.16 1014.28 1014.41 1014.56 1014.69 1014.79 1014.83 1014.82 1014.77 1014.71
1004.68 1004.49 1004.55 1004.85 1005.31 1005.84 1006.34 1006.76 1007.06 1007.27 1007.43 1007.62 1007.88 1008.24 1008.72 1009.27 1009.85 1010.40 1010.88 1011.28 1011.59 1011.86 1012.10 1012.36 1012.64 1012.95 1013.26 1013.55 1013.80 1013.99 1014.12 1014.22 1014.30 1014.39 1014.50 1014.62 1014.76 1014.88 1014.96 1015.00 1014.99 1014.95 1014.90
1004.58 1004.47 1004.59 1004.93 1005.41 1005.93 1006.42 1006.81 1007.08 1007.26 1007.40 1007.57 1007.83 1008.21 1008.70 1009.28 1009.88 1010.45 1010.95 1011.36 1011.69 1011.97 1012.22 1012.48 1012.77 1013.09 1013.40 1013.70 1013.95 1014.15 1014.29 1014.40 1014.49 1014.58 1014.68 1014.80 1014.92 1015.02 1015.09 1015.13 1015.12 1015.10 1015.06
1004.31 1004.28 1004.47 1004.86 1005.37 1005.92 1006.40 1006.79 1007.05 1007.22 1007.35 1007.51 1007.76 1008.13 1008.61 1009.18 1009.78 1010.36 1010.88 1011.32 1011.68 1011.99 1012.28 1012.58 1012.89 1013.21 1013.53 1013.83 1014.08 1014.28 1014.43 1014.54 1014.64 1014.73 1014.84 1014.95 1015.05 1015.14 1015.21 1015.24 1015.25 1015.24 1015.23
1003.97 1003.99 1004.24 1004.67 1005.21 1005.78 1006.28 1006.67 1006.95 1007.12 1007.25 1007.41 1007.65 1008.00 1008.47 1009.02 1009.61 1010.19 1010.73 1011.20 1011.62 1011.99 1012.34 1012.68 1013.03 1013.37 1013.70 1013.98 1014.22 1014.40 1014.54 1014.66 1014.76 1014.86 1014.97 1015.08 1015.18 1015.27 1015.33 1015.36 1015.38 1015.40 1015.43
1003.68 1003.72 1003.98 1004.42 1004.97 1005.54 1006.05 1006.47 1006.76 1006.97 1007.12 1007.30 1007.54 1007.89 1008.33 1008.86 1009.44 1010.02 1010.58 1011.10 1011.58 1012.02 1012.44 1012.84 1013.23 1013.59 1013.90 1014.17 1014.37 1014.53 1014.65 1014.75 1014.85 1014.96 1015.08 1015.20 1015.31 1015.41 1015.47 1015.52 1015.55 1015.59 1015.65
1003.55 1003.55 1003.78 1004.18 1004.70 1005.24 1005.75 1006.18 1006.50 1006.75 1006.96 1007.18 1007.46 1007.81 1008.25 1008.77 1009.33 1009.92 1010.50 1011.06 1011.60 1012.12 1012.61 1013.08 1013.50 1013.86 1014.15 1014.38 1014.54 1014.65 1014.73 1014.81 1014.91 1015.04 1015.18 1015.33 1015.46 1015.57 1015.65 1015.72 1015.77 1015.83 1015.92
1003.66 1003.58 1003.71 1004.02 1004.44 1004.92 1005.39 1005.82 1006.17 1006.48 1006.76 1007.05 1007.39 1007.79 1008.26 1008.78 1009.34 1009.93 1010.53 1011.13 1011.72 1012.30 1012.84 1013.35 1013.79 1014.15 1014.42 1014.59 1014.69 1014.75 1014.79 1014.85 1014.95 1015.09 1015.26 1015.45 1015.62 1015.77 1015.88 1015.96 1016.03 1016.12 1016.22
1004.03 1003.81 1003.79 1003.96 1004.24 1004.61 1005.00 1005.39 1005.77 1006.14 1006.51 1006.90 1007.34 1007.81 1008.33 1008.88 1009.45 1010.04 1010.65 1011.27 1011.89 1012.50 1013.08 1013.62 1014.07 1014.41 1014.65 1014.77 1014.82 1014.82 1014.83 1014.87 1014.97 1015.13 1015.34 1015.57 1015.79 1015.98 1016.13 1016.24 1016.33 1016.43 1016.54
1004.58 1004.21 1004.02 1003.99 1004.10 1004.30 1004.58 1004.91 1005.29 1005.71 1006.18 1006.69 1007.24 1007.82 1008.41 1009.01 1009.61 1010.21 1010.81 1011.43 1012.05 1012.68 1013.27 1013.81 1014.26 1014.60 1014.80 1014.89 1014.90 1014.86 1014.84 1014.87 1014.98 1015.17 1015.42 1015.70 1015.97 1016.21 1016.40 1016.54 1016.64 1016.74 1016.85
1005.22 1004.70 1004.32 1004.08 1003.98 1004.00 1004.13 1004.38 1004.73 1005.19 1005.75 1006.38 1007.06 1007.76 1008.45 1009.12 1009.75 1010.36 1010.95 1011.55 1012.16 1012.77 1013.36 1013.89 1014.34 1014.66 1014.85 1014.93 1014.92 1014.87 1014.84 1014.87 1014.99 1015.21 1015.50 1015.82 1016.14 1016.43 1016.65 1016.81 1016.93 1017.03 1017.12
1005.80 1005.15 1004.60 1004.16 1003.85 1003.67 1003.65 1003.78 1004.09 1004.57 1005.19 1005.93 1006.74 1007.56 1008.36 1009.11 1009.79 1010.41 1011.00 1011.58 1012.16 1012.74 1013.31 1013.83 1014.27 1014.61 1014.81 1014.90 1014.90 1014.86 1014.85 1014.89 1015.03 1015.27 1015.59 1015.94 1016.30 1016.62 1016.87 1017.06 1017.18 1017.28 1017.36
1006.20 1005.45 1004.76 1004.16 1003.67 1003.32 1003.13 1003.15 1003.39 1003.86 1004.52 1005.34 1006.25 1007.19 1008.10 1008.93 1009.68 1010.33 1010.93 1011.49 1012.04 1012.59 1013.14 1013.65 1014.10 1014.46 1014.69 1014.82 1014.87 1014.87 1014.88 1014.95 1015.11 1015.36 1015.68 1016.06 1016.43 1016.76 1017.04 1017.24 1017.38 1017.47 1017.54
1006.31 1005.51 1004.74 1004.03 1003.40 1002.91 1002.60 1002.50 1002.67 1003.09 1003.76 1004.62 1005.61 1006.64 1007.65 1008.57 1009.39 1010.10 1010.72 1011.28 1011.82 1012.36 1012.89 1013.40 1013.87 1014.26 1014.55 1014.74 1014.85 1014.91 1014.97 1015.06 1015.23 1015.48 1015.79 1016.15 1016.52 1016.86 1017.14 1017.36 1017.51 1017.61 1017.68
1006.06 1005.26 1004.46 1003.71 1003.02 1002.45 1002.04 1001.86 1001.95 1002.31 1002.94 1003.81 1004.83 1005.93 1007.02 1008.04 1008.95 1009.73 1010.40 1011.00 1011.55 1012.08 1012.61 1013.14 1013.63 1014.06 1014.41 1014.67 1014.86 1014.99 1015.09 1015.21 1015.38 1015.61 1015.90 1016.23 1016.57 1016.90 1017.18 1017.40 1017.57 1017.69 1017.77
1005.46 1004.67 1003.90 1003.17 1002.50 1001.92 1001.48 1001.25 1001.26 1001.56 1002.13 1002.96 1003.98 1005.10 1006.26 1007.36 1008.37 1009.25 1010.00 1010.66 1011.26 1011.82 1012.37 1012.91 1013.42 1013.90 1014.31 1014.65 1014.90 1015.09 1015.25 1015.39 1015.55 1015.75 1016.00 1016.28 1016.58 1016.87 1017.14 1017.37 1017.56 1017.69 1017.79
1004.52 1003.77 1003.07 1002.43 1001.84 1001.32 1000.92 1000.67 1000.64 1000.86 1001.35 1002.11 1003.09 1004.21 1005.40 1006.58 1007.69 1008.68 1009.55 1010.30 1010.97 1011.58 1012.16 1012.73 1013.27 1013.79 1014.25 1014.64 1014.96 1015.21 1015.40 1015.56 1015.71 1015.87 1016.07 1016.29 1016.54 1016.80 1017.05 1017.27 1017.47 1017.63 1017.76
1003.33 1002.61 1002.01 1001.50 1001.04 1000.65 1000.32 1000.11 1000.06 1000.22 1000.63 1001.29 1002.20 1003.28 1004.49 1005.73 1006.93 1008.05 1009.05 1009.92 1010.68 1011.37 1012.00 1012.59 1013.16 1013.70 1014.19 1014.63 1014.99 1015.28 1015.51 1015.68 1015.82 1015.96 1016.10 1016.27 1016.47 1016.68 1016.90 1017.12 1017.32 1017.50 1017.64
1001.99 1001.30 1000.79 1000.42 1000.14 999.90 999.70 999.56 999.51 999.62 999.94 1000.51 1001.32 1002.35 1003.54 1004.83 1006.12 1007.36 1008.49 1009.50 1010.37 1011.14 1011.83 1012.45 1013.04 1013.59 1014.10 1014.57 1014.97 1015.29 1015.55 1015.74 1015.88 1015.99 1016.10 1016.22 1016.37 1016.53 1016.72 1016.92 1017.12 1017.29 1017.44
1000.63 999.94 999.51 999.28 999.16 999.10 999.04 998.98 998.97 999.04 999.28 999.74 1000.46 1001.42 1002.58 1003.89 1005.26 1006.62 1007.88 1009.02 1010.01 1010.86 1011.60 1012.26 1012.86 1013.42 1013.94 1014.42 1014.85 1015.21 1015.50 1015.71 1015.87 1015.98 1016.07 1016.16 1016.26 1016.38 1016.53 1016.70 1016.87 1017.03 1017.16
999.39 998.68 998.29 998.17 998.19 998.28 998.35 998.39 998.40 998.46 998.63 999.00 999.62 1000.51 1001.64 1002.95 1004.38 1005.82 1007.20 1008.46 1009.56 1010.50 1011.30 1011.98 1012.60 1013.16 1013.69 1014.18 1014.63 1015.03 1015.36 1015.61 1015.80 1015.92 1016.01 1016.08 1016.15 1016.24 1016.34 1016.46 1016.59 1016.71 1016.82
998.42 997.65 997.27 997.20 997.32 997.51 997.68 997.79 997.84 997.88 998.01 998.30 998.83 999.65 1000.74 1002.05 1003.51 1005.02 1006.48 1007.83 1009.02 1010.03 1010.88 1011.61 1012.23 1012.80 1013.34 1013.85 1014.33 1014.76 1015.14 1015.44 1015.67 1015.83 1015.94 1016.01 1016.06 1016.11 1016.17 1016.24 1016.31 1016.38 1016.44
997.83 996.99 996.57 996.50 996.65 996.88 997.09 997.23 997.30 997.33 997.42 997.66 998.13 998.89 999.93 1001.23 1002.70 1004.24 1005.77 1007.18 1008.43 1009.50 1010.39 1011.14 1011.79 1012.37 1012.91 1013.45 1013.96 1014.44 1014.86 1015.23 1015.51 1015.71 1015.85 1015.93 1015.97 1015.99 1016.01 1016.02 1016.04 1016.05 1016.05
997.71 996.79 996.30 996.16 996.25 996.45 996.64 996.77 996.82 996.84 996.90 997.11 997.55 998.27 999.28 1000.55 1002.01 1003.57 1005.11 1006.55 1007.84 1008.94 1009.86 1010.63 1011.29 1011.89 1012.46 1013.01 1013.56 1014.08 1014.56 1014.98 1015.32 1015.56 1015.73 1015.82 1015.86 1015.87 1015.85 1015.81 1015.78 1015.73 1015.69
998.07 997.07 996.47 996.22 996.18 996.27 996.37 996.44 996.45 996.45 996.50 996.70 997.12 997.82 998.82 1000.06 1001.50 1003.04 1004.57 1006.01 1007.30 1008.41 1009.34 1010.12 1010.80 1011.41 1012.00 1012.59 1013.17 1013.73 1014.25 1014.71 1015.09 1015.38 1015.57 1015.68 1015.72 1015.71 1015.66 1015.60 1015.53 1015.45 1015.37
998.85 997.78 997.05 996.63 996.42 996.34 996.30 996.26 996.20 996.16 996.21 996.41 996.85 997.55 998.54 999.77 1001.18 1002.68 1004.17 1005.58 1006.84 1007.94 1008.86 1009.65 1010.34 1010.97 1011.58 1012.19 1012.79 1013.38 1013.94 1014.43 1014.84 1015.15 1015.36 1015.48 1015.52 1015.50 1015.45 1015.37 1015.28 1015.18 1015.10
Thickness
5801 5802 5798 5796 5795 5793 5792 5790 5788 5786 5784 5782 5780 5778 5776 5774 5772 5770 5768 5766 5763 5761 5759 5757 5755 5753 5751 5749 5746 5744 5742 5740 5739 5737 5736 5735 5734 5732 5731 5729 5727 5726 5724
5802 5799 5793 5791 5790 5789 5787 5786 5785 5783 5781 5779 5777 5775 5773 5771 5769 5767 5765 5763 5761 5759 5756 5754 5752 5750 5748 5745 5743 5741 5739 5737 5736 5734 5733 5732 5731 5729 5728 5726 5724 5722 5721
5797 5795 5788 5786 5784 5783 5782 5782 5780 5779 5777 5775 5773 5772 5770 5768 5766 5764 5762 5760 5758 5756 5754 5751 5749 5747 5744 5742 5740 5738 5736 5734 5733 5732 5731 5729 5727 5726 5725 5723 5721 5719 5718
5792 5789 5784 5781 5780 5778 5777 5776 5775 5774 5773 5772 5770 5768 5766 5764 5762 5761 5759 5757 5755 5753 5750 5748 5745 5743 5741 5739 5737 5735 5733 5732 5731 5730 5728 5726 5724 5723 5721 5719 5717 5716 5714
5784 5783 5779 5776 5774 5773 5772 5771 5770 5769 5768 5767 5766 5764 5762 5760 5759 5757 5755 5753 5751 5749 5747 5744 5742 5739 5737 5735 5734 5732 5731 5730 5728 5727 5725 5723 5721 5719 5717 5715 5713 5712 5710
5775 5776 5773 5770 5768 5768 5767 5766 5766 5765 5764 5763 5761 5760 5758 5756 5754 5753 5751 5749 5747 5745 5743 5740 5738 5736 5734 5732 5730 5729 5728 5727 5726 5724 5722 5719 5717 5716 5714 5711 5709 5708 5706
5765 5768 5766 5764 5763 5762 5761 5761 5761 5760 5759 5758 5757 5756 5754 5752 5750 5748 5747 5745 5743 5741 5739 5736 5734 5732 5730 5728 5727 5725 5724 5724 5723 5721 5718 5715 5714 5712 5710 5708 5706 5704 5701
5756 5758 5758 5757 5757 5756 5755 5755 5756 5755 5754 5753 5752 5751 5749 5747 5746 5744 5742 5740 5739 5737 5735 5733 5730 5728 5726 5725 5723 5722 5721 5720 5719 5717 5714 5712 5710 5708 5706 5704 5702 5700 5697
5746 5748 5749 5749 5749 5749 5749 5749 5749 5749 5749 5748 5746 5745 5744 5742 5741 5739 5737 5735 5734 5732 5730 5729 5726 5724 5723 5721 5719 5718 5718 5717 5715 5713 5710 5708 5706 5704 5702 5700 5697 5695 5693
5732 5736 5738 5740 5742 5742 5743 5743 5743 5743 5742 5742 5741 5739 5738 5736 5735 5733 5732 5730 5729 5727 5726 5724 5722 5720 5718 5717 5715 5715 5714 5713 5711 5709 5706 5704 5702 5700 5698 5695 5693 5690 5688
5716 5722 5727 5729 5732 5735 5736 5736 5736 5736 5735 5735 5734 5732 5731 5729 5728 5728 5727 5725 5724 5722 5720 5719 5717 5715 5714 5712 5712 5711 5710 5709 5708 5705 5702 5700 5698 5696 5694 5691 5688 5686 5683
5698 5706 5714 5718 5721 5725 5728 5729 5729 5729 5728 5728 5727 5726 5726 5724 5723 5723 5721 5720 5719 5717 5715 5714 5712 5711 5709 5708 5708 5707 5706 5706 5704 5701 5698 5696 5694 5692 5689 5687 5684 5681 5679
5683 5692 5700 5706 5710 5714 5718 5721 5722 5722 5722 5722 5722 5722 5721 5719 5718 5717 5715 5714 5713 5712 5710 5709 5707 5707 5706 5704 5704 5703 5703 5703 5700 5697 5694 5692 5690 5688 5685 5682 5680 5677 5674
5668 5679 5688 5694 5699 5704 5708 5712 5714 5716 5716 5717 5717 5718 5717 5716 5714 5712 5711 5710 5709 5708 5706 5704 5703 5703 5702 5701 5701 5700 5700 5699 5696 5692 5689 5688 5686 5683 5681 5678 5675 5673 5670
5653 5664 5675 5681 5687 5693 5697 5702 5706 5709 5711 5713 5713 5713 5714 5712 5710 5708 5707 5705 5705 5704 5702 5701 5701 5700 5699 5698 5697 5697 5696 5694 5691 5688 5685 5683 5681 5679 5677 5674 5671 5668 5665
5638 5649 5660 5668 5675 5682 5686 5692 5698 5702 5705 5707 5708 5709 5709 5708 5707 5704 5703 5701 5701 5700 5699 5698 5697 5696 5695 5694 5693 5693 5691 5689 5687 5684 5681 5679 5677 5675 5672 5670 5667 5665 5661
5624 5635 5645 5654 5663 5670 5677 5683 5690 5695 5699 5701 5703 5704 5705 5704 5702 5701 5699 5697 5697 5696 5695 5693 5693 5692 5690 5689 5688 5688 5686 5685 5683 5680 5678 5675 5673 5671 5668 5666 5663 5660 5657
5611 5620 5631 5641 5650 5658 5667 5674 5681 5687 5691 5695 5697 5699 5700 5699 5698 5696 5695 5693 5692 5691 5690 5689 5688 5686 5684 5683 5682 5682 5681 5680 5679 5677 5674 5672 5669 5667 5664 5661 5659 5656 5653
5599 5608 5617 5627 5638 5647 5656 5665 5673 5679 5684 5689 5690 5692 5694 5695 5693 5692 5691 5689 5688 5686 5685 5684 5683 5681 5678 5677 5676 5675 5675 5674 5674 5673 5671 5668 5666 5663 5660 5657 5654 5651 5648
5587 5596 5604 5615 5627 5637 5645 5654 5662 5670 5676 5681 5684 5686 5689 5689 5689 5687 5686 5684 5683 5681 5679 5679 5677 5676 5674 5672 5672 5669 5669 5668 5668 5667 5666 5664 5662 5659 5656 5653 5650 5647 5644
5575 5583 5592 5602 5615 5626 5634 5643 5652 5661 5668 5673 5678 5682 5684 5685 5685 5685 5683 5681 5679 5677 5676 5674 5672 5670 5668 5667 5664 5660 5661 5662 5662 5662 5661 5659 5657 5655 5652 5649 5646 5643 5640
5564 5572 5582 5593 5606 5618 5628 5637 5647 5654 5661 5667 5672 5675 5677 5678 5680 5681 5679 5678 5675 5673 5670 5670 5668 5665 5664 5663 5660 5654 5651 5652 5655 5658 5656 5654 5653 5651 5648 5645 5643 5640 5636
5555 5563 5573 5586 5599 5610 5621 5630 5638 5644 5651 5656 5662 5667 5670 5673 5675 5676 5675 5674 5671 5670 5667 5666 5665 5664 5660 5659 5659 5655 5649 5647 5648 5650 5651 5650 5648 5646 5644 5641 5639 5636 5632
5546 5555 5566 5578 5591 5602 5612 5622 5632 5640 5646 5653 5657 5662 5664 5667 5670 5671 5671 5669 5667 5666 5664 5663 5662 5661 5658 5655 5654 5655 5654 5653 5647 5642 5643 5644 5643 5641 5639 5638 5635 5632 5629
5538 5548 5559 5571 5583 5595 5605 5615 5627 5635 5641 5646 5650 5654 5657 5659 5663 5665 5665 5663 5662 5662 5661 5659 5658 5657 5655 5653 5652 5650 5649 5649 5648 5641 5637 5636 5636 5637 5636 5634 5631 5628 5625
5530 5540 5551 5563 5576 5587 5597 5608 5620 5628 5634 5638 5644 5646 5650 5653 5657 5659 5660 5659 5658 5659 5658 5656 5655 5653 5652 5650 5649 5648 5646 5644 5642 5640 5635 5632 5631 5631 5631 5629 5626 5624 5620